Volver al catálogo

STARLINK-3522

ActivoComunicacionesVLEO
NORAD 51725·PAYLOAD·🇺🇸 United States

Lanzado Feb 21, 2022 desde Cape Canaveral Space Force Station

Loading…

Próximos Pases (próximas 24 horas)

TLE

ActualizadoSource: CelesTrak SupGP

Época: Sep 15, 2026, 02:14 UTC

1 51725C 22016M   26258.09354167 -.00010227  00000+0 -31044-3 0  2585
2 51725  53.1574 189.1880 0001285  88.3297 209.6717 15.33543870    17

Sigue STARLINK-3522 en tiempo real con AllMySat

Download on the App Store